This demonstration page uses our WeatherBlox Daily Observations layout. Learn more.

Hourly Observations for May 19, 2019

Temp ( °F °C ) Dew Point ( °F °C ) Humidity (%) Winds ( mph kmh ) Pressure ( in mb ) Visibility ( mi km ) Precip ( " mm )
12:54 am 00:54 Partly Cloudy 58 14.4 52 11.1 81 81 NNW 16 26 29.62 1003 10 16.0934 0 0
1:54 am 01:54 Mostly Clear 57 13.9 50 10 78 78 NW 14 22 29.61 1003 10 16.0934 0 0.0254
2:54 am 02:54 Clear 56 13.3 49 9.4 77 77 NW 9 15 29.63 1003 10 16.0934 0 0
3:54 am 03:54 Cloudy 55 12.8 47 8.3 74 74 NW 7 11 29.66 1004 10 16.0934 0 0
4:01 am 04:01 Cloudy 55 12.8 47 8.3 74 74 NW 9 15 29.68 1005 10 16.0934 0 0
4:54 am 04:54 Cloudy 55 12.8 46 7.8 72 72 WNW 10 17 29.68 1005 10 16.0934 0 0
5:54 am 05:54 Cloudy 55 12.8 47 8.3 74 74 NW 13 20 29.7 1006 10 16.0934 0 0
6:03 am 06:03 Cloudy 54 12.2 47 8.3 77 77 NW 16 26 29.72 1006 10 16.0934 0 0
6:54 am 06:54 Cloudy 55 12.8 47 8.3 74 74 NW 13 20 29.72 1006 10 16.0934 0 0
7:54 am 07:54 Cloudy 54 12.2 48 8.9 80 80 NW 14 22 29.74 1007 10 16.0934 0 0.0254
8:54 am 08:54 Mostly Cloudy 56 13.3 47 8.3 72 72 WNW 20 31 29.76 1008 10 16.0934 0 0
9:54 am 09:54 Cloudy 56 13.3 45 7.2 67 67 NW 23 37 29.78 1009 10 16.0934 0 0
10:54 am 10:54 Cloudy 57 13.9 43 6.1 60 60 WNW 16 26 29.81 1010 10 16.0934 0 0
11:54 am 11:54 Cloudy 58 14.4 42 5.6 56 56 WNW 18 30 29.84 1011 10 16.0934 0 0
12:54 pm 12:54 Mostly Cloudy 60 15.6 42 5.6 52 52 NW 18 30 29.84 1010 10 16.0934 0 0
1:54 pm 13:54 Mostly Cloudy 61 16.1 41 5 48 48 NNW 21 33 29.86 1011 10 16.0934 0 0
2:54 pm 14:54 Mostly Cloudy 62 16.7 40 4.4 44 44 WNW 17 28 29.89 1012 10 16.0934 0 0
3:54 pm 15:54 Mostly Cloudy 60 15.6 39 3.9 46 46 WNW 17 28 29.91 1013 10 16.0934 0 0
4:54 pm 16:54 Mostly Cloudy 61 16.1 40 4.4 46 46 NW 20 31 29.92 1013 10 16.0934 0 0
5:54 pm 17:54 Cloudy 58 14.4 38 3.3 48 48 NNW 18 30 29.94 1014 10 16.0934 0 0
6:54 pm 18:54 Cloudy 58 14.4 37 2.8 46 46 NNW 17 28 29.95 1014 10 16.0934 0 0
7:54 pm 19:54 Mostly Cloudy 54 12.2 38 3.3 55 55 NW 14 22 29.98 1015 10 16.0934 0 0
8:54 pm 20:54 Mostly Cloudy 54 12.2 38 3.3 55 55 NNW 10 17 30.01 1016 10 16.0934 0 0
9:54 pm 21:54 Cloudy 53 11.7 39 3.9 59 59 WNW 8 13 30.04 1017 10 16.0934 0 0
10:54 pm 22:54 Cloudy 53 11.7 40 4.4 61 61 NW 9 15 30.06 1018 10 16.0934 0 0
11:54 pm 23:54 Cloudy 53 11.7 39 3.9 59 59 NNW 14 22 30.07 1018 10 16.0934 0 0

Powered by AerisWeather